Le nostre stazioni meteo in Italia

Pubblicità
Il mio iltempo24.it
Aviano, Italia (16036): Temperatura & dewpoint: 12.03.2019 20:00:00 - 18.03.2019 20:00:00 (CET)Aviano, Italia (16036): velocità del vento: 12.03.2019 20:00:00 - 18.03.2019 20:00:00 (CET)Aviano, Italia (16036): direzione del vento: 12.03.2019 20:00:00 - 18.03.2019 20:00:00 (CET)Aviano, Italia (16036): reduced air pressure: 12.03.2019 20:00:00 - 18.03.2019 20:00:00 (CET)Aviano, Italia (16036): visibility: 12.03.2019 20:00:00 - 18.03.2019 20:00:00 (CET)
Data & Tempo tt [°C] td [°C] ff [km/h] ff [kn] dd ppp [hPa] vv [km]
18.03.2019 20:00:00 - - - - - - -
18.03.2019 19:00:00 7,2 2,9 5 3 ENE 1018,1 35
18.03.2019 18:00:00 8,0 3,0 5 3 NE - 10
18.03.2019 17:00:00 8,0 5,0 11 6 E - 10
18.03.2019 16:00:00 8,0 2,7 8 4 N 1016,2 35
18.03.2019 15:00:00 7,0 3,0 22 12 E - 10
18.03.2019 14:00:00 7,0 4,0 24 13 ENE - 10
18.03.2019 13:00:00 6,8 5,1 24 13 NE 1016,2 7
18.03.2019 12:00:00 7,0 5,0 2 1 S - 7
18.03.2019 11:00:00 7,0 4,0 11 6 NE - 8
18.03.2019 10:00:00 7,0 5,0 22 12 NE 1013,0 4,0
18.03.2019 09:00:00 8,0 6,0 24 13 NNE - 2,5
18.03.2019 08:00:00 10,0 8,0 11 6 ENE - 2,5
18.03.2019 07:00:00 10,0 8,4 11 6 ENE 1009,8 0,5
18.03.2019 06:00:00 9,0 7,0 9 5 NE - 4,0
18.03.2019 05:00:00 9,0 7,0 8 4 NNE - 8
18.03.2019 04:00:00 - - - - - - -
18.03.2019 03:00:00 - - - - - - -
18.03.2019 02:00:00 - - - - - - -
18.03.2019 01:00:00 - - - - - - -
18.03.2019 00:00:00 - - - - - - -
17.03.2019 23:00:00 - - - - - - -
17.03.2019 22:00:00 - - - - - - -
17.03.2019 21:00:00 - - - - - - -
17.03.2019 20:00:00 - - - - - - -
17.03.2019 19:00:00 - - - - - - -
17.03.2019 18:00:00 - - - - - - -
17.03.2019 17:00:00 - - - - - - -
17.03.2019 16:00:00 - - - - - - -
17.03.2019 15:00:00 - - - - - - -
17.03.2019 14:00:00 - - - - - - -
17.03.2019 13:00:00 - - - - - - -
17.03.2019 12:00:00 - - - - - - -
17.03.2019 11:00:00 - - - - - - -
17.03.2019 10:00:00 - - - - - - -
17.03.2019 09:00:00 - - - - - - -
17.03.2019 08:00:00 - - - - - - -
17.03.2019 07:00:00 - - - - - - -
17.03.2019 06:00:00 - - - - - - -
17.03.2019 05:00:00 - - - - - - -
17.03.2019 04:00:00 - - - - - - -
17.03.2019 03:00:00 - - - - - - -
17.03.2019 02:00:00 - - - - - - -
17.03.2019 01:00:00 - - - - - - -
17.03.2019 00:00:00 - - - - - - -
16.03.2019 23:00:00 - - - - - - -
16.03.2019 22:00:00 8,2 7,4 13 7 NNE 1016,5 15
16.03.2019 21:00:00 10,0 9,0 11 6 NE - 10
16.03.2019 20:00:00 10,0 9,0 9 5 NE - 10
16.03.2019 19:00:00 12,2 10,6 9 5 ESE 1014,6 15
16.03.2019 18:00:00 15,0 9,0 11 6 NNE - 10
16.03.2019 17:00:00 16,0 8,0 9 5 NE - 10
16.03.2019 16:00:00 15,8 7,6 13 7 NNE 1013,5 25
16.03.2019 15:00:00 16,0 7,0 11 6 NE - 10
16.03.2019 14:00:00 15,0 6,0 5 3 E - 10
16.03.2019 13:00:00 15,0 6,8 4 2 E 1014,8 25
16.03.2019 12:00:00 15,0 8,0 5 3 ESE - 10
16.03.2019 11:00:00 14,0 7,0 11 6 E - 10
16.03.2019 10:00:00 13,0 6,1 13 7 ENE 1014,7 12
16.03.2019 09:00:00 11,0 6,0 8 4 ENE - 10
16.03.2019 08:00:00 - - - - - - -
16.03.2019 07:00:00 4,6 3,1 8 4 N 1013,3 12
16.03.2019 06:00:00 - - - - - - -
16.03.2019 05:00:00 - - - - - - -
16.03.2019 04:00:00 - - - - - - -
16.03.2019 03:00:00 - - - - - - -
16.03.2019 02:00:00 - - - - - - -
16.03.2019 01:00:00 - - - - - - -
16.03.2019 00:00:00 - - - - - - -
15.03.2019 23:00:00 - - - - - - -
15.03.2019 22:00:00 8,0 6,5 8 4 NE 1013,0 15
15.03.2019 21:00:00 9,0 6,0 4 2 N - 10
15.03.2019 20:00:00 10,0 7,0 8 4 SSO - 10
15.03.2019 19:00:00 12,4 2,3 2 1 NE 1010,8 15
15.03.2019 18:00:00 14,0 2,0 4 2 SSE - 10
15.03.2019 17:00:00 15,0 3,0 5 3 ONO - 10
15.03.2019 16:00:00 15,2 2,1 4 2 SSO 1010,4 15
15.03.2019 15:00:00 15,0 2,0 8 4 E - 10
15.03.2019 14:00:00 15,0 3,0 8 4 E - 9
15.03.2019 13:00:00 14,0 3,8 8 4 ESE 1010,7 12
15.03.2019 12:00:00 13,0 4,0 4 2 OSO - 9
15.03.2019 11:00:00 12,0 4,0 5 3 S - 9
15.03.2019 10:00:00 9,8 3,8 5 3 SSO 1011,2 9
15.03.2019 09:00:00 7,0 4,0 2 1 ONO - 9
15.03.2019 08:00:00 4,0 2,0 5 3 OSO - 10
15.03.2019 07:00:00 3,2 2,6 8 4 NE 1008,6 12
15.03.2019 06:00:00 2,0 2,0 11 6 NNE - 10
15.03.2019 05:00:00 2,0 1,0 9 5 N - 10
15.03.2019 04:00:00 - - - - - - -
15.03.2019 03:00:00 - - - - - - -
15.03.2019 02:00:00 - - - - - - -
15.03.2019 01:00:00 - - - - - - -
15.03.2019 00:00:00 - - - - - - -
14.03.2019 23:00:00 - - - - - - -
14.03.2019 22:00:00 5,0 4,0 4 2 NNE 1008,9 6
14.03.2019 21:00:00 7,0 6,0 4 2 SE - 10
14.03.2019 20:00:00 7,0 6,0 2 1 SE - 10
14.03.2019 19:00:00 8,8 6,4 5 3 S 1009,8 8
14.03.2019 18:00:00 9,0 7,0 8 4 S - 9
14.03.2019 17:00:00 10,0 5,0 11 6 S - 10
14.03.2019 16:00:00 11,0 3,3 5 3 S 1010,6 12
14.03.2019 15:00:00 11,0 3,0 5 3 S - 10
14.03.2019 14:00:00 11,0 3,0 9 5 SSO - 10
14.03.2019 13:00:00 11,2 3,3 8 4 SO 1013,6 12
14.03.2019 12:00:00 11,0 3,0 8 4 SSO - 10
14.03.2019 11:00:00 10,0 4,0 8 4 SSE - 10
14.03.2019 10:00:00 8,8 3,2 8 4 SE 1014,4 15
14.03.2019 09:00:00 6,0 4,0 5 3 SSO - 10
14.03.2019 08:00:00 3,0 2,0 5 3 NNE - 10
14.03.2019 07:00:00 0,4 -0,2 8 4 NNE 1015,3 15
14.03.2019 06:00:00 0,0 0,0 11 6 NE - 10
14.03.2019 05:00:00 0,0 0,0 9 5 NNE - 10
14.03.2019 04:00:00 - - - - - - -
14.03.2019 03:00:00 - - - - - - -
14.03.2019 02:00:00 - - - - - - -
14.03.2019 01:00:00 - - - - - - -
14.03.2019 00:00:00 - - - - - - -
13.03.2019 23:00:00 - - - - - - -
13.03.2019 22:00:00 5,0 2,7 4 2 N 1013,8 35
13.03.2019 21:00:00 6,0 3,0 9 5 N - 10
13.03.2019 20:00:00 6,0 2,0 4 2 E - 10
13.03.2019 19:00:00 7,0 2,9 9 5 NE 1013,1 30
13.03.2019 18:00:00 - - - - - - -
13.03.2019 17:00:00 - - - - - - -
13.03.2019 16:00:00 10,2 3,0 11 6 SSE 1011,5 30
13.03.2019 15:00:00 - - - - - - -
13.03.2019 14:00:00 - - - - - - -
13.03.2019 13:00:00 12,4 3,6 13 7 ESE 1012,8 25
13.03.2019 12:00:00 - - - - - - -
13.03.2019 11:00:00 12,0 4,0 15 8 ENE - 10
13.03.2019 10:00:00 10,4 5,2 13 7 ENE 1014,9 25
13.03.2019 09:00:00 9,0 4,0 15 8 ENE - 10
13.03.2019 08:00:00 5,0 3,0 13 7 NNE - 10
13.03.2019 07:00:00 3,4 2,2 11 6 NE 1015,8 25
13.03.2019 06:00:00 3,0 0,0 13 7 NNE - 10
13.03.2019 05:00:00 3,0 0,0 13 7 NNE - 10
13.03.2019 04:00:00 - - - - - - -
13.03.2019 03:00:00 - - - - - - -
13.03.2019 02:00:00 - - - - - - -
13.03.2019 01:00:00 - - - - - - -
13.03.2019 00:00:00 - - - - - - -
12.03.2019 23:00:00 - - - - - - -
12.03.2019 22:00:00 4,2 -4,3 9 5 ENE 1021,4 30
12.03.2019 21:00:00 6,0 -4,0 11 6 NE - 10
12.03.2019 20:00:00 9,0 -2,0 11 6 SO - 10

tt = Temperatura
td = dewpoint
ff = velocità del vento
dd = direzione del vento
ppp = reduced air pressure
vv = visibility

Stazioni seguenti

WeatherPro
AMSI
MeteoEarth